Regional Weather Roundup
Issued by NWS

Home | Current Version | Previous Version | Graphics & Text | Print | Product List | Glossary On
Versions: 1 2 3 4 5 6 7 8 9 10 11 12 13 14 15 16 17 18 19 20 21 22 23 24 25 26 27 28 29 30 31 32 33 34 35 36 37 38 39 40 41 42 43 44 45 46 47 48 49 50
000
ASUS43 KFSD 030410
RWRSD

WEATHER ROUNDUP FOR SOUTH DAKOTA
NATIONAL WEATHER SERVICE SIOUX FALLS SD
1100 PM CDT TUE JUN 02 2015

NOTE: "FAIR" INDICATES FEW OR NO CLOUDS BELOW 12,000 FEET WITH NO
SIGNIFICANT WEATHER AND/OR OBSTRUCTIONS TO VISIBILITY.


SDZ001>005-009-010-012>017-030500-
NORTHWEST AND NORTH CENTRAL SOUTH DAKOTA

CITY           SKY/WX    TMP DP  RH WIND       PRES   REMARKS
BUFFALO          N/A     59  52  77 N3        29.85S
FAITH            N/A     65  56  72 NW10      29.85R
MOBRIDGE       CLOUDY    68  62  81 NW7       29.73R
$$

SDZ012>016-024>037-041>051-057-063-072>074-030500-
SOUTHWEST AND SOUTH CENTRAL SOUTH DAKOTA

CITY           SKY/WX    TMP DP  RH WIND       PRES   REMARKS
RAPID CTY ARPT MOCLDY    63  59  87 NW15      29.89R
PIERRE         TSTM      71  60  68 NW9       29.75R
CUSTER         TSTM      52  32  46 NW10G38   30.08R
ELLSWORTH AFB  HVY RAIN  63  59  88 NW33G43   29.94R
PHILIP         CLOUDY    66  60  81 N3        29.79R
PINE RIDGE     CLOUDY    58  53  84 CALM      29.86R
SPEARFISH      HVY RAIN  55  54  94 W15       30.08R
WINNER         CLOUDY    69  57  65 W25G47    29.81R THUNDER
$$

SDZ004>011-016>023-039-040-030500-
NORTHEAST SOUTH DAKOTA

CITY           SKY/WX    TMP DP  RH WIND       PRES   REMARKS
ABERDEEN       PTCLDY    74  64  71 S10       29.71R
WATERTOWN      MOCLDY    70  61  73 S13       29.78R
BROOKINGS      MOCLDY    72  61  68 S18       29.83R
SISSETON         N/A     71  62  73 S15       29.71F
$$

SDZ017-020-022-023-036>040-048>070-030500-
SOUTHEAST SOUTH DAKOTA

CITY           SKY/WX    TMP DP  RH WIND       PRES   REMARKS
SIOUX FALLS    CLOUDY    70  61  73 S17G25    29.84R
HURON          CLOUDY    74  63  68 S10       29.76R
CHAMBERLAIN    CLOUDY    72  64  76 S9        29.78R
MITCHELL       CLOUDY    74  63  68 S14       29.79R
YANKTON        CLOUDY    70  59  68 S20G26    29.83R
$$

ABBREVIATIONS USED IN REMARKS
   TC - TEMPERATURE IN CELSIUS
  WCI - WIND CHILL INDEX
   HX - HEAT INDEX
  VSB - VISIBILITY




USA.gov is the U.S. government's official web portal to all federal, state and local government web resources and services.